GW3724 Weather Reports


time (UTC)temp
C
wind
direction
speed
KPH
gust
KPH
rain 1hr
cm
rain 24hr
cm
rain mn
cm
humidity
%
barometer
mb
20260507075600 10 308 0.0 6.4 0.00 0.00 0.00 83 1021.9
20260507075057 10 0 0.0 6.4 0.00 0.00 0.00 83 1021.9
20260507074559 10 0 3.2 6.4 0.00 0.00 0.00 83 1021.9
20260507074058 10 336 1.6 8.0 0.00 0.00 0.00 83 1021.8
20260507073558 10 328 3.2 8.0 0.00 0.00 0.00 82 1021.8
20260507073059 10 304 1.6 8.0 0.00 0.00 0.00 82 1021.8
20260507072556 10 328 1.6 9.7 0.00 0.00 0.00 82 1021.8
20260507072058 10 319 1.6 9.7 0.00 0.00 0.00 82 1021.8
20260507071600 10 316 1.6 9.7 0.00 0.00 0.00 81 1021.8
20260507071056 10 317 3.2 14.5 0.00 0.00 0.00 81 1021.8
20260507070556 10 323 4.8 14.5 0.00 0.00 0.00 81 1021.8
20260507070107 10 333 8.0 17.7 0.00 0.00 0.00 80 1021.8
20260507065555 10 339 6.4 17.7 0.00 0.00 0.00 80 1021.8
20260507065057 11 345 4.8 12.9 0.00 0.00 0.00 81 1021.8
20260507064600 11 303 3.2 12.9 0.00 0.00 0.00 82 1021.8
20260507064056 11 334 6.4 16.1 0.00 0.00 0.00 82 1021.8
20260507063558 11 317 6.4 16.1 0.00 0.00 0.00 83 1021.8
20260507063059 11 321 4.8 11.3 0.00 0.00 0.00 83 1021.7
20260507062556 11 326 3.2 11.3 0.00 0.00 0.00 84 1021.7
20260507062057 11 331 4.8 11.3 0.00 0.00 0.00 83 1021.7
20260507061558 11 317 4.8 9.7 0.00 0.00 0.00 83 1021.6
20260507061057 11 313 3.2 8.0 0.00 0.00 0.00 83 1021.6
20260507060558 11 315 3.2 8.0 0.00 0.00 0.00 84 1021.6
20260507060106 11 304 1.6 8.0 0.00 0.00 0.00 84 1021.6
20260507055556 11 324 4.8 8.0 0.00 0.00 0.00 84 1021.7
20260507055055 11 314 4.8 8.0 0.00 0.00 0.00 83 1021.7
20260507054600 11 0 0.0 4.8 0.00 0.00 0.00 84 1021.7
20260507054058 11 314 1.6 6.4 0.00 0.00 0.00 84 1021.7
20260507053559 11 0 1.6 8.0 0.00 0.00 0.00 84 1021.7
20260507053057 11 327 4.8 8.0 0.00 0.00 0.00 83 1021.7
20260507052558 11 318 1.6 12.9 0.00 0.00 0.00 84 1021.7
20260507052059 11 0 0.0 12.9 0.00 0.00 0.00 84 1021.8
20260507051557 11 305 0.0 9.7 0.00 0.00 0.00 84 1021.8
20260507051057 11 266 1.6 4.8 0.00 0.00 0.00 84 1021.9
20260507050558 11 0 0.0 3.2 0.00 0.00 0.00 84 1021.8
20260507050100 11 0 0.0 3.2 0.00 0.00 0.00 84 1021.9
20260507045558 11 0 0.0 4.8 0.00 0.00 0.00 84 1021.8
20260507045058 11 0 0.0 8.0 0.00 0.00 0.00 84 1021.8
20260507044601 11 320 1.6 9.7 0.00 0.00 0.00 84 1021.9
20260507044059 11 314 1.6 9.7 0.00 0.00 0.00 84 1021.9
20260507043558 11 321 1.6 6.4 0.00 0.00 0.00 84 1021.9
20260507043101 11 325 1.6 4.8 0.00 0.00 0.00 84 1021.8
20260507042556 11 0 1.6 4.8 0.00 0.00 0.00 84 1021.8
20260507042058 11 0 0.0 9.7 0.00 0.00 0.00 84 1021.7
20260507041558 11 327 3.2 9.7 0.00 0.00 0.00 84 1021.8
20260507041058 12 0 3.2 9.7 0.00 0.00 0.00 84 1021.9
20260507040559 12 319 3.2 12.9 0.00 0.00 0.00 83 1021.8
20260507040103 12 314 4.8 12.9 0.00 0.00 0.00 83 1021.8
20260507035558 12 307 3.2 11.3 0.00 0.00 0.00 83 1021.7
20260507035058 12 290 3.2 14.5 0.00 0.00 0.00 83 1021.6
20260507034600 12 295 3.2 14.5 0.00 0.00 0.00 82 1021.6
20260507034059 12 298 4.8 14.5 0.00 0.00 0.00 82 1021.5
20260507033558 12 315 4.8 16.1 0.00 0.00 0.00 82 1021.4
20260507033059 12 322 4.8 16.1 0.00 0.00 0.00 81 1021.3
20260507032559 12 328 6.4 16.1 0.00 0.00 0.00 81 1021.2
20260507032057 12 300 1.6 8.0 0.00 0.00 0.00 82 1021.1
20260507031555 12 333 1.6 12.9 0.00 0.00 0.00 82 1021.1
20260507031059 12 322 3.2 12.9 0.00 0.00 0.00 81 1021.0
20260507030558 12 319 4.8 12.9 0.00 0.00 0.00 81 1021.0
20260507030059 12 324 4.8 14.5 0.00 0.00 0.00 81 1021.0
20260507025558 13 307 4.8 17.7 0.00 0.00 0.00 80 1021.0
20260507025058 13 331 6.4 17.7 0.00 0.00 0.00 80 1020.9
20260507024609 13 319 8.0 16.1 0.00 0.00 0.00 79 1020.9
20260507024059 13 314 6.4 16.1 0.00 0.00 0.00 80 1020.9
20260507023558 13 321 6.4 20.9 0.00 0.00 0.00 80 1020.8
20260507023057 13 316 8.0 20.9 0.00 0.00 0.00 79 1020.8
20260507022558 13 318 11.3 20.9 0.00 0.00 0.00 79 1020.7
20260507022058 13 288 8.0 20.9 0.00 0.00 0.00 79 1020.7
20260507021600 13 333 8.0 20.9 0.00 0.00 0.00 79 1020.7
20260507021058 13 333 8.0 16.1 0.00 0.00 0.00 79 1020.7
20260507020558 14 338 8.0 19.3 0.00 0.00 0.00 79 1020.7
20260507020058 14 321 9.7 19.3 0.00 0.00 0.00 79 1020.6
20260507015557 14 320 11.3 19.3 0.00 0.00 0.00 78 1020.6
20260507015057 14 339 9.7 17.7 0.00 0.00 0.00 78 1020.6
20260507014600 14 331 8.0 16.1 0.00 0.00 0.00 78 1020.6
20260507014058 15 332 8.0 16.1 0.00 0.00 0.00 78 1020.4
20260507013600 15 306 8.0 16.1 0.00 0.00 0.00 77 1020.5
20260507013057 15 329 6.4 16.1 0.00 0.00 0.00 76 1020.4
20260507012558 15 325 8.0 16.1 0.00 0.00 0.00 76 1020.4
20260507012058 15 348 9.7 16.1 0.00 0.00 0.00 76 1020.4
20260507011558 15 329 8.0 14.5 0.00 0.00 0.00 75 1020.5
20260507011058 15 302 3.2 14.5 0.00 0.00 0.00 75 1020.6
20260507010558 15 307 6.4 14.5 0.00 0.00 0.00 74 1020.6
20260507010113 15 329 4.8 14.5 0.00 0.00 0.00 74 1020.7
20260507005558 15 271 4.8 14.5 0.00 0.00 0.00 74 1020.8
20260507005057 15 309 6.4 17.7 0.00 0.00 0.00 73 1020.8
20260507004600 15 304 8.0 17.7 0.00 0.00 0.00 74 1020.8
20260507004058 15 315 6.4 17.7 0.00 0.00 0.00 73 1020.8
20260507003559 16 325 8.0 19.3 0.00 0.00 0.00 72 1020.7
20260507003055 16 265 8.0 19.3 0.00 0.00 0.00 71 1020.7
20260507002558 16 303 9.7 19.3 0.00 0.00 0.00 70 1020.8
20260507002058 16 341 6.4 16.1 0.00 0.00 0.00 70 1020.8
20260507001601 16 317 6.4 16.1 0.00 0.00 0.00 70 1020.7
20260507001058 16 306 8.0 16.1 0.00 0.00 0.00 70 1020.8
20260507000602 16 322 3.2 19.3 0.00 0.00 0.00 71 1020.6
20260507000104 16 360 8.0 20.9 0.00 0.00 0.00 70 1020.6
20260506235559 16 317 11.3 20.9 0.00 0.00 0.00 70 1020.7
20260506235100 16 306 8.0 16.1 0.00 0.00 0.00 70 1020.6
20260506234621 16 288 8.0 16.1 0.00 0.00 0.00 71 1020.6
20260506234100 16 332 9.7 20.9 0.00 0.00 0.00 70 1020.7
20260506233559 16 308 8.0 20.9 0.00 0.00 0.00 70 1020.7
20260506233103 16 317 11.3 20.9 0.00 0.00 0.00 68 1020.7
20260506232557 16 323 9.7 19.3 0.00 0.00 0.00 69 1020.7
20260506232058 16 5 11.3 19.3 0.00 0.00 0.00 71 1020.7
20260506231558 16 5 11.3 22.5 0.00 0.00 0.00 70 1020.7
20260506231059 16 321 11.3 22.5 0.00 0.00 0.00 71 1020.7
20260506230558 16 326 12.9 22.5 0.00 0.00 0.00 69 1020.8
20260506230056 16 265 8.0 20.9 0.00 0.00 0.00 71 1020.7
20260506225559 16 312 8.0 20.9 0.00 0.00 0.00 69 1020.7
20260506225059 16 321 9.7 20.9 0.00 0.00 0.00 68 1020.8
20260506224557 16 264 1.6 19.3 0.00 0.00 0.00 72 1020.8
20260506224059 16 317 11.3 19.3 0.00 0.00 0.00 70 1021.0
20260506223558 16 337 9.7 17.7 0.00 0.00 0.00 72 1021.0
20260506223104 16 336 8.0 17.7 0.00 0.00 0.00 72 1021.0
20260506222600 16 343 6.4 17.7 0.00 0.00 0.00 72 1020.9
20260506222058 16 281 4.8 22.5 0.00 0.00 0.00 73 1021.0
20260506221557 16 344 12.9 22.5 0.00 0.00 0.00 72 1021.1
20260506221058 16 329 9.7 22.5 0.00 0.00 0.00 72 1021.2
20260506220601 16 340 6.4 19.3 0.00 0.00 0.00 75 1021.2
20260506220057 15 340 11.3 19.3 0.00 0.00 0.00 73 1021.2
20260506215601 16 321 8.0 17.7 0.00 0.00 0.00 74 1021.2
20260506215101 15 322 6.4 17.7 0.00 0.00 0.00 75 1021.1
20260506214606 15 306 8.0 17.7 0.00 0.00 0.00 74 1021.1
20260506214059 15 0 6.4 17.7 0.00 0.00 0.00 76 1021.1
20260506213558 15 346 8.0 16.1 0.00 0.00 0.00 76 1021.1
20260506213059 15 322 6.4 14.5 0.00 0.00 0.00 77 1021.2
20260506212558 15 328 4.8 11.3 0.00 0.00 0.00 77 1021.2
20260506212058 15 5 4.8 11.3 0.00 0.00 0.00 79 1021.2
20260506211600 15 330 1.6 9.7 0.00 0.00 0.00 80 1021.2
20260506211058 15 26 3.2 9.7 0.00 0.00 0.00 79 1021.1
20260506210558 14 21 3.2 9.7 0.00 0.00 0.00 79 1021.2
20260506210056 14 5 3.2 14.5 0.00 0.00 0.00 80 1021.2
20260506205558 14 351 4.8 14.5 0.00 0.00 0.00 81 1021.3
20260506205058 13 0 3.2 14.5 0.00 0.00 0.00 81 1021.2
20260506204608 13 315 4.8 11.3 0.00 0.00 0.00 81 1021.3
20260506204057 13 292 1.6 12.9 0.00 0.00 0.00 82 1021.3
20260506203557 13 319 3.2 12.9 0.00 0.00 0.00 83 1021.3
20260506203055 13 304 1.6 9.7 0.00 0.00 0.00 83 1021.2
20260506202559 13 333 3.2 11.3 0.00 0.00 0.00 84 1021.2
20260506202058 13 298 4.8 11.3 0.00 0.00 0.00 83 1021.2
20260506201600 13 323 3.2 6.4 0.00 0.00 0.00 84 1021.2
20260506201059 13 360 1.6 9.7 0.00 0.00 0.00 85 1021.1
20260506200557 13 351 3.2 9.7 0.00 0.00 0.00 86 1021.3
20260506200059 13 0 3.2 9.7 0.00 0.00 0.00 86 1021.3
20260506195603 13 313 3.2 8.0 0.00 0.00 0.00 87 1021.4
20260506195058 12 343 1.6 12.9 0.00 0.00 0.00 88 1021.4
20260506194600 12 350 3.2 12.9 0.00 0.00 0.00 87 1021.4
20260506194058 12 325 4.8 12.9 0.00 0.00 0.00 88 1021.4
20260506193558 12 342 4.8 14.5 0.00 0.00 0.00 88 1021.4
20260506193100 12 351 6.4 14.5 0.00 0.00 0.00 88 1021.4
20260506192559 12 320 3.2 16.1 0.00 0.00 0.00 88 1021.3
20260506192059 12 349 8.0 16.1 0.00 0.00 0.00 88 1021.2
20260506191558 12 315 4.8 9.7 0.00 0.00 0.00 88 1021.3
20260506191058 12 337 3.2 9.7 0.00 0.00 0.00 88 1021.1
20260506190557 12 335 3.2 8.0 0.00 0.00 0.00 88 1021.0
20260506190100 12 334 3.2 8.0 0.00 0.00 0.00 88 1021.1
20260506185557 12 349 3.2 8.0 0.00 0.00 0.00 89 1021.2
20260506185058 12 317 3.2 14.5 0.00 0.00 0.00 88 1021.2
20260506184558 12 306 8.0 14.5 0.00 0.00 0.00 89 1021.2
20260506184058 12 321 3.2 9.7 0.00 0.00 0.00 89 1021.3
20260506183558 12 321 3.2 9.7 0.00 0.00 0.00 89 1021.2
20260506183107 12 312 4.8 9.7 0.00 0.00 0.00 89 1021.2
20260506182557 12 315 3.2 9.7 0.00 0.00 0.00 89 1021.2
20260506182059 12 0 4.8 11.3 0.00 0.00 0.00 90 1021.2
20260506181557 12 321 4.8 11.3 0.00 0.00 0.00 89 1021.3
20260506181057 12 323 3.2 9.7 0.00 0.00 0.00 90 1021.2
20260506180558 12 317 4.8 9.7 0.00 0.00 0.00 90 1021.3
20260506180058 12 296 4.8 11.3 0.00 0.00 0.00 90 1021.2
20260506175559 12 313 6.4 11.3 0.00 0.00 0.00 90 1021.2
20260506175057 12 288 3.2 8.0 0.00 0.00 0.00 90 1021.3
20260506174608 12 320 3.2 6.4 0.00 0.00 0.00 90 1021.2
20260506174101 12 311 1.6 6.4 0.00 0.00 0.00 90 1021.2
20260506173558 12 306 3.2 6.4 0.00 0.00 0.00 90 1021.0
20260506173127 12 301 0.0 6.4 0.00 0.00 0.00 91 1020.9
20260506172557 12 245 1.6 6.4 0.00 0.00 0.00 91 1020.7
20260506172058 12 0 1.6 6.4 0.00 0.00 0.00 91 1020.8
20260506171600 11 0 0.0 4.8 0.00 0.00 0.00 91 1020.9
20260506171058 11 275 1.6 4.8 0.00 0.00 0.00 92 1021.0
20260506170559 11 315 0.0 3.2 0.00 0.00 0.00 92 1020.9
20260506170057 11 0 0.0 0.0 0.00 0.00 0.00 92 1020.9
20260506165557 11 0 0.0 0.0 0.00 0.00 0.00 92 1020.7
20260506165058 11 0 0.0 3.2 0.00 0.00 0.00 92 1020.7
20260506164556 11 0 0.0 4.8 0.00 0.00 0.00 93 1020.8
20260506164058 11 0 0.0 4.8 0.00 0.00 0.00 93 1020.8
20260506163558 11 271 0.0 6.4 0.00 0.00 0.00 93 1020.9
20260506163100 11 31 1.6 6.4 0.00 0.00 0.00 93 1020.8
20260506162559 11 326 0.0 4.8 0.00 0.00 0.00 93 1020.9
20260506162101 11 328 1.6 4.8 0.00 0.00 0.00 93 1020.9
20260506161609 11 0 0.0 4.8 0.00 0.00 0.00 93 1020.8
20260506161057 11 257 0.0 4.8 0.00 0.00 0.00 94 1020.8
20260506160558 11 0 0.0 4.8 0.00 0.00 0.00 94 1020.7
20260506160107 11 246 1.6 8.0 0.00 0.00 0.00 94 1020.7
20260506155557 11 306 1.6 9.7 0.00 0.00 0.00 94 1020.7
20260506155058 11 317 1.6 12.9 0.00 0.00 0.00 94 1020.5
20260506154601 11 302 6.4 12.9 0.00 0.00 0.00 94 1020.6
20260506154058 11 333 4.8 11.3 0.00 0.00 0.00 94 1020.6
20260506153558 11 316 1.6 11.3 0.00 0.00 0.00 95 1020.6
20260506153056 11 325 4.8 11.3 0.00 0.00 0.00 94 1020.5
20260506152558 11 296 4.8 8.0 0.00 0.00 0.00 95 1020.5
20260506152058 11 313 1.6 8.0 0.00 0.00 0.00 95 1020.4
20260506151558 11 315 1.6 6.4 0.00 0.00 0.00 95 1020.3
20260506151059 11 0 0.0 3.2 0.00 0.00 0.00 96 1020.1
20260506150601 11 0 0.0 3.2 0.00 0.00 0.00 95 1019.9
20260506150106 11 159 0.0 3.2 0.00 0.00 0.00 96 1019.9
20260506145559 11 0 0.0 3.2 0.00 0.00 0.00 96 1020.0
20260506145058 11 0 0.0 3.2 0.00 0.00 0.00 97 1020.1
20260506144611 10 0 0.0 3.2 0.00 0.00 0.00 96 1020.0
20260506144058 10 0 0.0 4.8 0.00 0.00 0.00 96 1020.1
20260506143559 10 0 0.0 6.4 0.00 0.00 0.00 96 1020.3
20260506143058 10 288 0.0 6.4 0.00 0.00 0.00 96 1020.4
20260506142557 11 0 1.6 6.4 0.00 0.00 0.00 96 1020.4
20260506142058 11 341 3.2 8.0 0.00 0.00 0.00 96 1020.4
20260506141557 11 313 1.6 8.0 0.00 0.00 0.00 96 1020.4
20260506141116 11 329 3.2 8.0 0.00 0.00 0.00 96 1020.3
20260506140557 11 342 1.6 8.0 0.00 0.00 0.00 96 1020.2
20260506140107 11 313 1.6 8.0 0.00 0.00 0.00 96 1020.1
20260506135559 11 327 4.8 9.7 0.00 0.00 0.00 95 1020.3
20260506135059 11 339 4.8 9.7 0.00 0.00 0.00 95 1020.2
20260506134557 11 327 4.8 8.0 0.00 0.00 0.00 95 1020.1
20260506134058 11 325 1.6 4.8 0.00 0.00 0.00 95 1020.0
20260506133558 11 0 0.0 4.8 0.00 0.00 0.00 95 1019.7
20260506133135 11 0 0.0 4.8 0.00 0.00 0.00 95 1019.6
20260506132557 11 309 0.0 4.8 0.00 0.00 0.00 95 1019.6
20260506132058 11 321 1.6 6.4 0.00 0.00 0.00 95 1019.6
20260506131603 11 315 0.0 6.4 0.00 0.00 0.00 96 1019.6
20260506131059 11 0 1.6 6.4 0.00 0.00 0.00 96 1019.5
20260506130558 11 0 0.0 3.2 0.00 0.00 0.00 96 1019.4
20260506130139 11 0 0.0 0.0 0.00 0.00 0.00 96 1019.4
20260506125558 11 0 0.0 0.0 0.00 0.00 0.00 96 1019.4
20260506125057 11 0 0.0 0.0 0.00 0.00 0.00 96 1019.3
20260506124559 11 0 0.0 0.0 0.00 0.00 0.00 96 1019.3
20260506124058 11 0 0.0 0.0 0.00 0.00 0.00 96 1019.2
20260506123558 11 0 0.0 0.0 0.00 0.00 0.00 96 1019.2
20260506123101 11 0 0.0 0.0 0.00 0.00 0.00 96 1019.2
20260506122558 11 0 0.0 0.0 0.00 0.00 0.00 96 1019.1
20260506122057 11 0 0.0 0.0 0.00 0.00 0.00 96 1019.1
20260506121602 11 0 0.0 0.0 0.00 0.00 0.00 96 1019.1
20260506121058 11 0 0.0 0.0 0.00 0.00 0.00 96 1019.1
20260506120600 11 0 0.0 0.0 0.00 0.00 0.00 96 1019.1
20260506120109 11 0 0.0 0.0 0.00 0.00 0.00 96 1019.1
20260506115557 11 0 0.0 0.0 0.00 0.00 0.00 96 1019.2
20260506115058 11 0 0.0 0.0 0.00 0.00 0.00 96 1019.1
20260506114606 11 0 0.0 0.0 0.00 0.00 0.00 96 1019.2
20260506114058 11 0 0.0 0.0 0.00 0.00 0.00 96 1019.1
20260506113557 11 0 0.0 0.0 0.00 0.00 0.00 96 1019.0
20260506113057 11 0 0.0 0.0 0.00 0.00 0.00 96 1019.0
20260506112559 11 0 0.0 0.0 0.00 0.00 0.00 96 1019.1
20260506112057 11 0 0.0 0.0 0.00 0.00 0.00 96 1019.2
20260506111558 11 0 0.0 0.0 0.00 0.00 0.00 96 1019.1
20260506111059 11 0 0.0 0.0 0.00 0.00 0.00 96 1019.1
20260506110558 11 0 0.0 0.0 0.00 0.00 0.00 96 1019.1
20260506110058 11 0 0.0 0.0 0.00 0.00 0.00 96 1019.1
20260506105646 11 0 0.0 0.0 0.00 0.00 0.00 96 1018.9
20260506105059 11 0 0.0 0.0 0.00 0.00 0.00 96 1018.9
20260506104605 11 0 0.0 0.0 0.00 0.00 0.00 96 1018.9
20260506104058 11 0 0.0 0.0 0.00 0.00 0.00 96 1018.8
20260506103559 11 0 0.0 0.0 0.00 0.00 0.00 96 1018.7
20260506103106 11 0 0.0 0.0 0.00 0.00 0.00 96 1018.7
20260506102559 11 0 0.0 0.0 0.00 0.00 0.00 96 1018.6
20260506102101 11 0 0.0 0.0 0.00 0.00 0.00 96 1018.6
20260506101555 11 0 0.0 0.0 0.00 0.00 0.00 95 1018.6
20260506101059 11 0 0.0 0.0 0.00 0.00 0.00 95 1018.6
20260506100558 11 0 0.0 0.0 0.00 0.00 0.00 95 1018.6
20260506100108 11 0 0.0 3.2 0.00 0.00 0.00 94 1018.6
20260506095558 11 0 0.0 3.2 0.00 0.00 0.00 94 1018.6
20260506095058 11 315 0.0 3.2 0.00 0.00 0.00 94 1018.6
20260506094603 11 0 0.0 4.8 0.00 0.00 0.00 93 1018.6
20260506094057 11 264 1.6 4.8 0.00 0.00 0.00 93 1018.5
20260506093558 11 273 1.6 4.8 0.00 0.00 0.00 92 1018.4
20260506093056 11 0 1.6 4.8 0.00 0.00 0.00 91 1018.3
20260506092558 11 309 0.0 4.8 0.00 0.00 0.00 91 1018.3
20260506092058 11 281 1.6 4.8 0.00 0.00 0.00 91 1018.2
20260506091559 12 0 0.0 4.8 0.00 0.00 0.00 90 1018.2
20260506091059 12 0 0.0 4.8 0.00 0.00 0.00 90 1018.2
20260506090558 12 316 1.6 4.8 0.00 0.00 0.00 90 1018.2
20260506090058 12 333 0.0 4.8 0.00 0.00 0.00 90 1018.3
20260506085558 12 299 0.0 4.8 0.00 0.00 0.00 89 1018.2
20260506085101 12 326 0.0 4.8 0.00 0.00 0.00 90 1018.2
20260506084601 12 0 0.0 4.8 0.00 0.00 0.00 89 1018.1
20260506084058 12 330 0.0 3.2 0.00 0.00 0.00 89 1018.0
20260506083558 12 0 0.0 3.2 0.00 0.00 0.00 89 1018.0
20260506083059 12 0 0.0 3.2 0.00 0.00 0.00 89 1018.0
20260506082558 12 0 0.0 0.0 0.00 0.00 0.00 89 1017.9
20260506082059 12 0 0.0 0.0 0.00 0.00 0.00 89 1018.0
20260506081614 12 0 0.0 0.0 0.00 0.00 0.00 89 1017.9
20260506081059 12 0 0.0 4.8 0.00 0.00 0.00 89 1017.9
20260506080559 12 0 0.0 4.8 0.00 0.00 0.00 89 1017.8